Frankfort, KY

8:24 PM EST on February 05, 2016 (GMT -0500)
Capital City

Weather History for KFFT - May, 2013

Change the Weather History Date:

Tuesday, May 14, 2013

  Actual Average Record
Temperature  
Mean Temperature 61 °F 63 °F  
Max Temperature 81 °F 75 °F 91 °F (1916)
Min Temperature 41 °F 52 °F 33 °F (1996)
Degree Days  
Heating Degree Days 4 4  
Month to date heating degree days 67 68  
Since 1 July heating degree days 4758 4646  
Cooling Degree Days 0 2  
Month to date cooling degree days 6 20  
Year to date cooling degree days 25 40  
Growing Degree Days 10 (Base 50)    
Moisture  
Dew Point 48 °F    
Average Humidity 68    
Maximum Humidity 93    
Minimum Humidity 42    
Precipitation  
Precipitation 0.00 in 0.16 in 2.07 in (1970)
Month to date precipitation 3.09 2.27  
Year to date precipitation 17.10 16.89  
Sea Level Pressure  
Sea Level Pressure 30.02 in    
Wind  
Wind Speed 8 mph (SSW)    
Max Wind Speed 23 mph    
Max Gust Speed 29 mph    
Visibility 10 miles    
Events      
T = Trace of Precipitation, MM = Missing Value Source: NWS Daily Summary

Daily Weather History Graph

Daily Weather History Graph

Search for Another Location

Airport or City:

Trip Planner

Search our weather history database for the weather conditions in past years. The results will help you decide how hot, cold, wet, or windy it might be!

Date:

Astronomy

May. 14, 2013 Rise Set
Actual Time 6:29 AM EDT 8:42 PM EDT
Civil Twilight 5:59 AM EDT 9:12 PM EDT
Nautical Twilight 5:23 AM EDT 9:48 PM EDT
Astronomical Twilight 4:44 AM EDT 10:28 PM EDT
Moon 10:08 AM EDT (5/14) No Moon Set
Length of Visible Light 15h 12m
Length of Day
14h 13m
Waxing Crescent, 19% of the Moon is Illuminated
May 14
Waxing Crescent
May 18
First Quarter
May 25
Full
May 31
Last Quarter
Jun 8
New

Hourly Weather History & Observations

Time (EDT) Temp. Windchill Dew Point Humidity Pressure Visibility Wind Dir Wind Speed Gust Speed Precip Events Conditions
12:53 AM 42.1 °F 40.2 °F 39.0 °F 89% 30.17 in 10.0 mi SW 3.5 mph - N/A   Clear
1:53 AM 42.1 °F - 37.9 °F 85% 30.15 in 10.0 mi Calm Calm - N/A   Clear
2:53 AM 41.0 °F - 39.0 °F 93% 30.14 in 10.0 mi Calm Calm - N/A   Scattered Clouds
3:53 AM 44.1 °F - 39.9 °F 85% 30.14 in 10.0 mi Calm Calm - N/A   Partly Cloudy
4:53 AM 46.0 °F - 41.0 °F 83% 30.13 in 10.0 mi Calm Calm - N/A   Mostly Cloudy
5:53 AM 44.1 °F 42.5 °F 39.9 °F 85% 30.12 in 10.0 mi SE 3.5 mph - N/A   Partly Cloudy
6:53 AM 44.1 °F - 39.0 °F 82% 30.13 in 10.0 mi Calm Calm - N/A   Partly Cloudy
7:53 AM 50.0 °F - 39.9 °F 68% 30.13 in 10.0 mi South 6.9 mph - N/A   Overcast
8:53 AM 54.0 °F - 39.9 °F 59% 30.12 in 10.0 mi South 9.2 mph - N/A   Overcast
9:53 AM 60.1 °F - 43.0 °F 53% 30.11 in 10.0 mi South 10.4 mph - N/A   Clear
10:53 AM 66.0 °F - 43.0 °F 43% 30.08 in 10.0 mi South 12.7 mph - N/A   Clear
11:53 AM 69.1 °F - 46.9 °F 45% 30.05 in 10.0 mi South 12.7 mph - N/A   Clear
12:53 PM 72.0 °F - 51.1 °F 48% 30.02 in 10.0 mi SSW 13.8 mph 23.0 mph N/A   Clear
1:53 PM 75.9 °F - 54.0 °F 46% 29.99 in 10.0 mi SW 11.5 mph 21.9 mph N/A   Clear
2:53 PM 77.0 °F - 55.0 °F 47% 29.95 in 10.0 mi SSW 15.0 mph 21.9 mph N/A   Clear
3:53 PM 80.1 °F - 55.9 °F 43% 29.91 in 10.0 mi SW 11.5 mph 21.9 mph N/A   Clear
4:53 PM 80.1 °F - 57.0 °F 45% 29.91 in 10.0 mi SSW 11.5 mph 20.7 mph N/A   Clear
5:53 PM 80.1 °F - 55.9 °F 43% 29.89 in 10.0 mi SW 16.1 mph 28.8 mph N/A   Clear
6:53 PM 79.0 °F - 57.0 °F 47% 29.87 in 10.0 mi SW 15.0 mph 20.7 mph N/A   Clear
7:53 PM 77.0 °F - 57.0 °F 50% 29.88 in 10.0 mi SW 11.5 mph - N/A   Clear
8:53 PM 72.0 °F - 57.9 °F 61% 29.89 in 10.0 mi SW 5.8 mph - N/A   Clear
9:53 PM 71.1 °F - 57.9 °F 63% 29.90 in 10.0 mi SW 4.6 mph - N/A   Clear
10:53 PM 68.0 °F - 57.0 °F 68% 29.92 in 10.0 mi SSW 3.5 mph - N/A   Clear
11:53 PM 66.0 °F - 57.0 °F 73% 29.93 in 10.0 mi SW 4.6 mph - N/A   Clear